Location: ?????
(38.3715°N, 23.0573°E)
Time: 12:25:21
(UTC+00:00)

USA 238 DEB - Pass Details

Date: 03 August 2024
Orbit: 915 x 1296 km, 63.4° (Epoch: 11 August)

Event Time Altitude Azimuth Distance (km) Brightness Sun altitude
Rises 22:02:21 0° 325° (NW) 4,024 7.6 -34.0°
Reaches altitude 10° 22:04:59 10° 324° (NW) 3,110 6.8 -34.0°
Enters shadow 22:11:49 71° 285° (WNW) 1,306 4.0 -34.2°
